owner,sensor,date,latitude,longitude,vertical_datum,sea_water_temperature,qcFlag
Chevron,ioos:station:wmo:42402:2,2022-06-21T21:41:00Z,26.9329,-90.5201,27.9,27.5,11111222
Chevron,ioos:station:wmo:42402:2,2022-06-21T22:08:00Z,26.9329,-90.5201,27.9,27.5,11111222
Chevron,ioos:station:wmo:42402:2,2022-06-21T22:28:00Z,26.9329,-90.5201,27.9,27.4,11111222
Chevron,ioos:station:wmo:42402:2,2022-06-21T22:48:00Z,26.9329,-90.5201,27.9,27.4,11111222
Chevron,ioos:station:wmo:42402:2,2022-06-21T23:08:00Z,26.9329,-90.5201,27.9,27.3,11111222
Chevron,ioos:station:wmo:42402:2,2022-06-21T23:28:00Z,26.9329,-90.5201,27.9,27.3,11111222
Chevron,ioos:station:wmo:42402:2,2022-06-21T23:48:00Z,26.9329,-90.5201,27.9,27.3,11111222
Chevron,ioos:station:wmo:42402:2,2022-06-22T00:08:00Z,26.9329,-90.5201,27.9,27.4,11111222
Chevron,ioos:station:wmo:42402:2,2022-06-22T00:28:00Z,26.9329,-90.5201,27.9,27.3,11111222
Chevron,ioos:station:wmo:42402:2,2022-06-22T00:48:00Z,26.9329,-90.5201,27.9,27.4,11111222
Chevron,ioos:station:wmo:42402:2,2022-06-22T01:08:00Z,26.9329,-90.5201,27.9,27.4,11111222
Chevron,ioos:station:wmo:42402:2,2022-06-22T01:28:00Z,26.9329,-90.5201,27.9,27.3,11111222
Chevron,ioos:station:wmo:42402:2,2022-06-22T01:48:00Z,26.9329,-90.5201,27.9,27.2,11111222
Chevron,ioos:station:wmo:42402:2,2022-06-22T02:08:00Z,26.9329,-90.5201,27.9,27.2,11111222
Chevron,ioos:station:wmo:42402:2,2022-06-22T02:28:00Z,26.9329,-90.5201,27.9,27.2,11111222
Chevron,ioos:station:wmo:42402:2,2022-06-22T02:48:00Z,26.9329,-90.5201,27.9,27.3,11111222
Chevron,ioos:station:wmo:42402:2,2022-06-22T03:08:00Z,26.9329,-90.5201,27.9,27.2,11111222
Chevron,ioos:station:wmo:42402:2,2022-06-22T03:28:00Z,26.9329,-90.5201,27.9,27.0,11111222
Chevron,ioos:station:wmo:42402:2,2022-06-22T03:48:00Z,26.9329,-90.5201,27.9,27.2,11111222
Chevron,ioos:station:wmo:42402:2,2022-06-22T04:08:00Z,26.9329,-90.5201,27.9,27.3,11111222
Chevron,ioos:station:wmo:42402:2,2022-06-22T04:27:00Z,26.9329,-90.5201,27.9,27.4,11111222
Chevron,ioos:station:wmo:42402:2,2022-06-22T04:47:00Z,26.9329,-90.5201,27.9,27.4,11111222
Chevron,ioos:station:wmo:42402:2,2022-06-22T05:07:00Z,26.9329,-90.5201,27.9,27.3,11111222
Chevron,ioos:station:wmo:42402:2,2022-06-22T05:27:00Z,26.9329,-90.5201,27.9,27.4,11111222
Chevron,ioos:station:wmo:42402:2,2022-06-22T05:47:00Z,26.9329,-90.5201,27.9,27.4,11111222
Chevron,ioos:station:wmo:42402:2,2022-06-22T06:07:00Z,26.9329,-90.5201,27.9,27.5,11111222
Chevron,ioos:station:wmo:42402:2,2022-06-22T06:27:00Z,26.9329,-90.5201,27.9,27.5,11111222
Chevron,ioos:station:wmo:42402:2,2022-06-22T06:47:00Z,26.9329,-90.5201,27.9,27.5,11111222
Chevron,ioos:station:wmo:42402:2,2022-06-22T07:07:00Z,26.9329,-90.5201,27.9,27.4,11111222
Chevron,ioos:station:wmo:42402:2,2022-06-22T07:27:00Z,26.9329,-90.5201,27.9,27.5,11111222
Chevron,ioos:station:wmo:42402:2,2022-06-22T07:47:00Z,26.9329,-90.5201,27.9,27.5,11111222
Chevron,ioos:station:wmo:42402:2,2022-06-22T08:07:00Z,26.9329,-90.5201,27.9,27.4,11111222
Chevron,ioos:station:wmo:42402:2,2022-06-22T08:27:00Z,26.9329,-90.5201,27.9,27.3,11111222
Chevron,ioos:station:wmo:42402:2,2022-06-22T08:47:00Z,26.9329,-90.5201,27.9,27.3,11111222
Chevron,ioos:station:wmo:42402:2,2022-06-22T09:07:00Z,26.9329,-90.5201,27.9,27.2,11111222
Chevron,ioos:station:wmo:42402:2,2022-06-22T09:27:00Z,26.9329,-90.5201,27.9,27.1,11111222
Chevron,ioos:station:wmo:42402:2,2022-06-22T09:47:00Z,26.9329,-90.5201,27.9,27.2,11111222
Chevron,ioos:station:wmo:42402:2,2022-06-22T10:07:00Z,26.9329,-90.5201,27.9,27.5,11111222
Chevron,ioos:station:wmo:42402:2,2022-06-22T10:27:00Z,26.9329,-90.5201,27.9,27.4,11111222
Chevron,ioos:station:wmo:42402:2,2022-06-22T10:47:00Z,26.9329,-90.5201,27.9,27.2,11111222
Chevron,ioos:station:wmo:42402:2,2022-06-22T11:07:00Z,26.9329,-90.5201,27.9,27.3,11111222
Chevron,ioos:station:wmo:42402:2,2022-06-22T11:27:00Z,26.9329,-90.5201,27.9,27.4,11111222
Chevron,ioos:station:wmo:42402:2,2022-06-22T11:47:00Z,26.9329,-90.5201,27.9,27.4,11111222
Chevron,ioos:station:wmo:42402:2,2022-06-22T12:07:00Z,26.9329,-90.5201,27.9,27.4,11111222
Chevron,ioos:station:wmo:42402:2,2022-06-22T12:27:00Z,26.9329,-90.5201,27.9,27.4,11111222
Chevron,ioos:station:wmo:42402:2,2022-06-22T12:47:00Z,26.9329,-90.5201,27.9,27.4,11111222
Chevron,ioos:station:wmo:42402:2,2022-06-22T13:07:00Z,26.9329,-90.5201,27.9,27.4,11111222
Chevron,ioos:station:wmo:42402:2,2022-06-22T13:27:00Z,26.9329,-90.5201,27.9,27.4,11111222
Chevron,ioos:station:wmo:42402:2,2022-06-22T13:47:00Z,26.9329,-90.5201,27.9,27.4,11111222
Chevron,ioos:station:wmo:42402:2,2022-06-22T14:07:00Z,26.9329,-90.5201,27.9,27.5,11111222
Chevron,ioos:station:wmo:42402:2,2022-06-22T14:27:00Z,26.9329,-90.5201,27.9,27.5,11111222
Chevron,ioos:station:wmo:42402:2,2022-06-22T14:47:00Z,26.9329,-90.5201,27.9,27.4,11111222
Chevron,ioos:station:wmo:42402:2,2022-06-22T15:07:00Z,26.9329,-90.5201,27.9,27.5,11111222
Chevron,ioos:station:wmo:42402:2,2022-06-22T15:27:00Z,26.9329,-90.5201,27.9,27.2,11111222
Chevron,ioos:station:wmo:42402:2,2022-06-22T15:47:00Z,26.9329,-90.5201,27.9,27.1,11111222
Chevron,ioos:station:wmo:42402:2,2022-06-22T16:07:00Z,26.9329,-90.5201,27.9,27.0,11111222
Chevron,ioos:station:wmo:42402:2,2022-06-22T16:27:00Z,26.9329,-90.5201,27.9,27.0,11111222
Chevron,ioos:station:wmo:42402:2,2022-06-22T16:47:00Z,26.9329,-90.5201,27.9,27.0,11111222
Chevron,ioos:station:wmo:42402:2,2022-06-22T17:07:00Z,26.9329,-90.5201,27.9,26.9,11111222
Chevron,ioos:station:wmo:42402:2,2022-06-22T17:27:00Z,26.9329,-90.5201,27.9,26.9,11111222
Chevron,ioos:station:wmo:42402:2,2022-06-22T17:47:00Z,26.9329,-90.5201,27.9,26.9,11111222
Chevron,ioos:station:wmo:42402:2,2022-06-22T18:07:00Z,26.9329,-90.5201,27.9,27.4,11111222
Chevron,ioos:station:wmo:42402:2,2022-06-22T18:27:00Z,26.9329,-90.5201,27.9,27.6,11111222
Chevron,ioos:station:wmo:42402:2,2022-06-22T18:47:00Z,26.9329,-90.5201,27.9,27.6,11111222
Chevron,ioos:station:wmo:42402:2,2022-06-22T19:07:00Z,26.9329,-90.5201,27.9,27.6,11111222
Chevron,ioos:station:wmo:42402:2,2022-06-22T19:26:00Z,26.9329,-90.5201,27.9,27.7,11111222
Chevron,ioos:station:wmo:42402:2,2022-06-22T19:46:00Z,26.9329,-90.5201,27.9,27.7,11111222
Chevron,ioos:station:wmo:42402:2,2022-06-22T20:06:00Z,26.9329,-90.5201,27.9,27.7,11111222
Chevron,ioos:station:wmo:42402:2,2022-06-22T20:26:00Z,26.9329,-90.5201,27.9,27.7,11111222
Chevron,ioos:station:wmo:42402:2,2022-06-22T20:46:00Z,26.9329,-90.5201,27.9,27.5,11111222
Chevron,ioos:station:wmo:42402:2,2022-06-22T21:05:00Z,26.9329,-90.5201,27.9,27.5,11111222
Chevron,ioos:station:wmo:42402:2,2022-06-22T21:25:00Z,26.9329,-90.5201,27.9,27.5,11111222
Chevron,ioos:station:wmo:42402:2,2022-06-22T21:45:00Z,26.9329,-90.5201,27.9,27.2,11111222
Chevron,ioos:station:wmo:42402:2,2022-06-22T22:05:00Z,26.9329,-90.5201,27.9,26.9,11111222
Chevron,ioos:station:wmo:42402:2,2022-06-22T22:25:00Z,26.9329,-90.5201,27.9,27.0,11111222
Chevron,ioos:station:wmo:42402:2,2022-06-22T22:45:00Z,26.9329,-90.5201,27.9,26.9,11111222
Chevron,ioos:station:wmo:42402:2,2022-06-22T23:04:00Z,26.9329,-90.5201,27.9,26.9,11111222
Chevron,ioos:station:wmo:42402:2,2022-06-22T23:24:00Z,26.9329,-90.5201,27.9,26.8,11111222
Chevron,ioos:station:wmo:42402:2,2022-06-22T23:44:00Z,26.9329,-90.5201,27.9,26.9,11111222
Chevron,ioos:station:wmo:42402:2,2022-06-23T00:04:00Z,26.9329,-90.5201,27.9,27.0,11111222
Chevron,ioos:station:wmo:42402:2,2022-06-23T00:24:00Z,26.9329,-90.5201,27.9,27.0,11111222
Chevron,ioos:station:wmo:42402:2,2022-06-23T00:44:00Z,26.9329,-90.5201,27.9,27.1,11111222
Chevron,ioos:station:wmo:42402:2,2022-06-23T01:04:00Z,26.9329,-90.5201,27.9,27.1,11111222
Chevron,ioos:station:wmo:42402:2,2022-06-23T01:24:00Z,26.9329,-90.5201,27.9,27.1,11111222
Chevron,ioos:station:wmo:42402:2,2022-06-23T01:44:00Z,26.9329,-90.5201,27.9,27.1,11111222
Chevron,ioos:station:wmo:42402:2,2022-06-23T02:04:00Z,26.9329,-90.5201,27.9,27.1,11111222
Chevron,ioos:station:wmo:42402:2,2022-06-23T02:24:00Z,26.9329,-90.5201,27.9,27.1,11111222
Chevron,ioos:station:wmo:42402:2,2022-06-23T02:44:00Z,26.9329,-90.5201,27.9,27.1,11111222
Chevron,ioos:station:wmo:42402:2,2022-06-23T03:04:00Z,26.9329,-90.5201,27.9,27.0,11111222
Chevron,ioos:station:wmo:42402:2,2022-06-23T03:24:00Z,26.9329,-90.5201,27.9,27.0,11111222
Chevron,ioos:station:wmo:42402:2,2022-06-23T03:44:00Z,26.9329,-90.5201,27.9,27.1,11111222
Chevron,ioos:station:wmo:42402:2,2022-06-23T04:04:00Z,26.9329,-90.5201,27.9,27.1,11111222
Chevron,ioos:station:wmo:42402:2,2022-06-23T04:24:00Z,26.9329,-90.5201,27.9,27.1,11111222
Chevron,ioos:station:wmo:42402:2,2022-06-23T04:44:00Z,26.9329,-90.5201,27.9,27.0,11111222
Chevron,ioos:station:wmo:42402:2,2022-06-23T05:04:00Z,26.9329,-90.5201,27.9,27.1,11111222
Chevron,ioos:station:wmo:42402:2,2022-06-23T05:24:00Z,26.9329,-90.5201,27.9,27.0,11111222
Chevron,ioos:station:wmo:42402:2,2022-06-23T05:44:00Z,26.9329,-90.5201,27.9,27.1,11111222
Chevron,ioos:station:wmo:42402:2,2022-06-23T06:04:00Z,26.9329,-90.5201,27.9,27.1,11111222
Chevron,ioos:station:wmo:42402:2,2022-06-23T06:24:00Z,26.9329,-90.5201,27.9,27.1,11111222
Chevron,ioos:station:wmo:42402:2,2022-06-23T06:44:00Z,26.9329,-90.5201,27.9,27.1,11111222
Chevron,ioos:station:wmo:42402:2,2022-06-23T07:04:00Z,26.9329,-90.5201,27.9,27.1,11111222
Chevron,ioos:station:wmo:42402:2,2022-06-23T07:23:00Z,26.9329,-90.5201,27.9,27.2,11111222
Chevron,ioos:station:wmo:42402:2,2022-06-23T07:43:00Z,26.9329,-90.5201,27.9,27.3,11111222
Chevron,ioos:station:wmo:42402:2,2022-06-23T08:03:00Z,26.9329,-90.5201,27.9,27.3,11111222
Chevron,ioos:station:wmo:42402:2,2022-06-23T08:23:00Z,26.9329,-90.5201,27.9,27.3,11111222
Chevron,ioos:station:wmo:42402:2,2022-06-23T08:43:00Z,26.9329,-90.5201,27.9,27.4,11111222
Chevron,ioos:station:wmo:42402:2,2022-06-23T09:03:00Z,26.9329,-90.5201,27.9,27.5,11111222
Chevron,ioos:station:wmo:42402:2,2022-06-23T09:23:00Z,26.9329,-90.5201,27.9,27.4,11111222
Chevron,ioos:station:wmo:42402:2,2022-06-23T09:43:00Z,26.9329,-90.5201,27.9,27.3,11111222
Chevron,ioos:station:wmo:42402:2,2022-06-23T10:03:00Z,26.9329,-90.5201,27.9,27.4,11111222
Chevron,ioos:station:wmo:42402:2,2022-06-23T10:23:00Z,26.9329,-90.5201,27.9,27.3,11111222
Chevron,ioos:station:wmo:42402:2,2022-06-23T10:43:00Z,26.9329,-90.5201,27.9,27.3,11111222
Chevron,ioos:station:wmo:42402:2,2022-06-23T11:03:00Z,26.9329,-90.5201,27.9,27.3,11111222
Chevron,ioos:station:wmo:42402:2,2022-06-23T11:23:00Z,26.9329,-90.5201,27.9,27.3,11111222
Chevron,ioos:station:wmo:42402:2,2022-06-23T11:43:00Z,26.9329,-90.5201,27.9,27.3,11111222
Chevron,ioos:station:wmo:42402:2,2022-06-23T12:03:00Z,26.9329,-90.5201,27.9,27.3,11111222
Chevron,ioos:station:wmo:42402:2,2022-06-23T12:23:00Z,26.9329,-90.5201,27.9,27.4,11111222
Chevron,ioos:station:wmo:42402:2,2022-06-23T12:43:00Z,26.9329,-90.5201,27.9,27.5,11111222
Chevron,ioos:station:wmo:42402:2,2022-06-23T13:03:00Z,26.9329,-90.5201,27.9,27.6,11111222
Chevron,ioos:station:wmo:42402:2,2022-06-23T13:23:00Z,26.9329,-90.5201,27.9,27.6,11111222
Chevron,ioos:station:wmo:42402:2,2022-06-23T13:43:00Z,26.9329,-90.5201,27.9,27.6,11111222
Chevron,ioos:station:wmo:42402:2,2022-06-23T14:02:00Z,26.9329,-90.5201,27.9,27.6,11111222
Chevron,ioos:station:wmo:42402:2,2022-06-23T14:22:00Z,26.9329,-90.5201,27.9,27.4,11111222
Chevron,ioos:station:wmo:42402:2,2022-06-23T14:42:00Z,26.9329,-90.5201,27.9,27.3,11111222
Chevron,ioos:station:wmo:42402:2,2022-06-23T15:01:00Z,26.9329,-90.5201,27.9,27.3,11111222
Chevron,ioos:station:wmo:42402:2,2022-06-23T15:21:00Z,26.9329,-90.5201,27.9,27.2,11111222
Chevron,ioos:station:wmo:42402:2,2022-06-23T15:41:00Z,26.9329,-90.5201,27.9,27.2,11111222
Chevron,ioos:station:wmo:42402:2,2022-06-23T16:01:00Z,26.9329,-90.5201,27.9,27.1,11111222
Chevron,ioos:station:wmo:42402:2,2022-06-23T16:21:00Z,26.9329,-90.5201,27.9,27.1,11111222
Chevron,ioos:station:wmo:42402:2,2022-06-23T16:41:00Z,26.9329,-90.5201,27.9,26.9,11111222
Chevron,ioos:station:wmo:42402:2,2022-06-23T17:01:00Z,26.9329,-90.5201,27.9,26.8,11111222
Chevron,ioos:station:wmo:42402:2,2022-06-23T17:21:00Z,26.9329,-90.5201,27.9,26.8,11111222
Chevron,ioos:station:wmo:42402:2,2022-06-23T17:41:00Z,26.9329,-90.5201,27.9,26.9,11111222
Chevron,ioos:station:wmo:42402:2,2022-06-23T18:01:00Z,26.9329,-90.5201,27.9,27.1,11111222
Chevron,ioos:station:wmo:42402:2,2022-06-23T18:21:00Z,26.9329,-90.5201,27.9,27.3,11111222
Chevron,ioos:station:wmo:42402:2,2022-06-23T18:41:00Z,26.9329,-90.5201,27.9,27.0,11111222
Chevron,ioos:station:wmo:42402:2,2022-06-23T19:00:00Z,26.9329,-90.5201,27.9,27.1,11111222
Chevron,ioos:station:wmo:42402:2,2022-06-23T19:20:00Z,26.9329,-90.5201,27.9,27.5,11111222
Chevron,ioos:station:wmo:42402:2,2022-06-23T19:40:00Z,26.9329,-90.5201,27.9,27.6,11111222
Chevron,ioos:station:wmo:42402:2,2022-06-23T20:00:00Z,26.9329,-90.5201,27.9,27.4,11111222
Chevron,ioos:station:wmo:42402:2,2022-06-23T20:20:00Z,26.9329,-90.5201,27.9,27.3,11111222
Chevron,ioos:station:wmo:42402:2,2022-06-23T20:40:00Z,26.9329,-90.5201,27.9,26.9,11111222
Chevron,ioos:station:wmo:42402:2,2022-06-23T21:00:00Z,26.9329,-90.5201,27.9,27.2,11111222
Chevron,ioos:station:wmo:42402:2,2022-06-23T21:20:00Z,26.9329,-90.5201,27.9,27.2,11111222
Chevron,ioos:station:wmo:42402:2,2022-06-23T21:40:00Z,26.9329,-90.5201,27.9,27.3,11111222
Chevron,ioos:station:wmo:42402:2,2022-06-23T22:00:00Z,26.9329,-90.5201,27.9,27.2,11111222
Chevron,ioos:station:wmo:42402:2,2022-06-23T22:20:00Z,26.9329,-90.5201,27.9,27.2,11111222
Chevron,ioos:station:wmo:42402:2,2022-06-23T22:40:00Z,26.9329,-90.5201,27.9,27.1,11111222
Chevron,ioos:station:wmo:42402:2,2022-06-23T23:00:00Z,26.9329,-90.5201,27.9,27.2,11111222
Chevron,ioos:station:wmo:42402:2,2022-06-23T23:20:00Z,26.9329,-90.5201,27.9,27.2,11111222
Chevron,ioos:station:wmo:42402:2,2022-06-23T23:40:00Z,26.9329,-90.5201,27.9,27.2,11111222
Chevron,ioos:station:wmo:42402:2,2022-06-24T00:00:00Z,26.9329,-90.5201,27.9,27.1,11111222
Chevron,ioos:station:wmo:42402:2,2022-06-24T00:20:00Z,26.9329,-90.5201,27.9,27.1,11111222
Chevron,ioos:station:wmo:42402:2,2022-06-24T00:40:00Z,26.9329,-90.5201,27.9,27.0,11111222
Chevron,ioos:station:wmo:42402:2,2022-06-24T01:00:00Z,26.9329,-90.5201,27.9,27.0,11111222
Chevron,ioos:station:wmo:42402:2,2022-06-24T01:20:00Z,26.9329,-90.5201,27.9,26.8,11111222
Chevron,ioos:station:wmo:42402:2,2022-06-24T01:40:00Z,26.9329,-90.5201,27.9,26.9,11111222
Chevron,ioos:station:wmo:42402:2,2022-06-24T02:00:00Z,26.9329,-90.5201,27.9,26.9,11111222
Chevron,ioos:station:wmo:42402:2,2022-06-24T02:19:00Z,26.9329,-90.5201,27.9,26.9,11111222
Chevron,ioos:station:wmo:42402:2,2022-06-24T02:39:00Z,26.9329,-90.5201,27.9,26.9,11111222
Chevron,ioos:station:wmo:42402:2,2022-06-24T02:59:00Z,26.9329,-90.5201,27.9,26.9,11111222
Chevron,ioos:station:wmo:42402:2,2022-06-24T03:19:00Z,26.9329,-90.5201,27.9,26.6,11111222
Chevron,ioos:station:wmo:42402:2,2022-06-24T03:39:00Z,26.9329,-90.5201,27.9,26.6,11111222
Chevron,ioos:station:wmo:42402:2,2022-06-24T03:59:00Z,26.9329,-90.5201,27.9,26.6,11111222
Chevron,ioos:station:wmo:42402:2,2022-06-24T04:19:00Z,26.9329,-90.5201,27.9,26.4,11111222
Chevron,ioos:station:wmo:42402:2,2022-06-24T04:39:00Z,26.9329,-90.5201,27.9,26.5,11111222
Chevron,ioos:station:wmo:42402:2,2022-06-24T04:59:00Z,26.9329,-90.5201,27.9,26.4,11111222
Chevron,ioos:station:wmo:42402:2,2022-06-24T05:19:00Z,26.9329,-90.5201,27.9,26.5,11111222
Chevron,ioos:station:wmo:42402:2,2022-06-24T05:39:00Z,26.9329,-90.5201,27.9,26.6,11111222
Chevron,ioos:station:wmo:42402:2,2022-06-24T05:59:00Z,26.9329,-90.5201,27.9,26.5,11111222
Chevron,ioos:station:wmo:42402:2,2022-06-24T06:18:00Z,26.9329,-90.5201,27.9,26.8,11111222
Chevron,ioos:station:wmo:42402:2,2022-06-24T06:37:00Z,26.9329,-90.5201,27.9,26.9,11111222
Chevron,ioos:station:wmo:42402:2,2022-06-24T06:57:00Z,26.9329,-90.5201,27.9,26.9,11111222
Chevron,ioos:station:wmo:42402:2,2022-06-24T07:17:00Z,26.9329,-90.5201,27.9,26.9,11111222
Chevron,ioos:station:wmo:42402:2,2022-06-24T07:37:00Z,26.9329,-90.5201,27.9,26.7,11111222
Chevron,ioos:station:wmo:42402:2,2022-06-24T07:56:00Z,26.9329,-90.5201,27.9,26.8,11111222
Chevron,ioos:station:wmo:42402:2,2022-06-24T08:16:00Z,26.9329,-90.5201,27.9,26.9,11111222
Chevron,ioos:station:wmo:42402:2,2022-06-24T08:36:00Z,26.9329,-90.5201,27.9,26.9,11111222
Chevron,ioos:station:wmo:42402:2,2022-06-24T08:56:00Z,26.9329,-90.5201,27.9,26.9,11111222
Chevron,ioos:station:wmo:42402:2,2022-06-24T09:16:00Z,26.9329,-90.5201,27.9,26.9,11111222
Chevron,ioos:station:wmo:42402:2,2022-06-24T09:36:00Z,26.9329,-90.5201,27.9,26.7,11111222
Chevron,ioos:station:wmo:42402:2,2022-06-24T09:56:00Z,26.9329,-90.5201,27.9,26.6,11111222
Chevron,ioos:station:wmo:42402:2,2022-06-24T10:16:00Z,26.9329,-90.5201,27.9,26.7,11111222
Chevron,ioos:station:wmo:42402:2,2022-06-24T10:36:00Z,26.9329,-90.5201,27.9,26.6,11111222
Chevron,ioos:station:wmo:42402:2,2022-06-24T10:56:00Z,26.9329,-90.5201,27.9,26.6,11111222
Chevron,ioos:station:wmo:42402:2,2022-06-24T11:16:00Z,26.9329,-90.5201,27.9,26.6,11111222
Chevron,ioos:station:wmo:42402:2,2022-06-24T11:36:00Z,26.9329,-90.5201,27.9,26.5,11111222
Chevron,ioos:station:wmo:42402:2,2022-06-24T11:56:00Z,26.9329,-90.5201,27.9,26.6,11111222
Chevron,ioos:station:wmo:42402:2,2022-06-24T12:16:00Z,26.9329,-90.5201,27.9,26.4,11111222
Chevron,ioos:station:wmo:42402:2,2022-06-24T12:36:00Z,26.9329,-90.5201,27.9,26.5,11111222
Chevron,ioos:station:wmo:42402:2,2022-06-24T12:56:00Z,26.9329,-90.5201,27.9,26.4,11111222
Chevron,ioos:station:wmo:42402:2,2022-06-24T13:16:00Z,26.9329,-90.5201,27.9,26.7,11111222
Chevron,ioos:station:wmo:42402:2,2022-06-24T13:35:00Z,26.9329,-90.5201,27.9,26.5,11111222
Chevron,ioos:station:wmo:42402:2,2022-06-24T13:55:00Z,26.9329,-90.5201,27.9,26.4,11111222
Chevron,ioos:station:wmo:42402:2,2022-06-24T14:15:00Z,26.9329,-90.5201,27.9,26.4,11111222
Chevron,ioos:station:wmo:42402:2,2022-06-24T14:35:00Z,26.9329,-90.5201,27.9,26.0,11111222
Chevron,ioos:station:wmo:42402:2,2022-06-24T14:55:00Z,26.9329,-90.5201,27.9,26.3,11111222
Chevron,ioos:station:wmo:42402:2,2022-06-24T15:15:00Z,26.9329,-90.5201,27.9,26.4,11111222
Chevron,ioos:station:wmo:42402:2,2022-06-24T15:35:00Z,26.9329,-90.5201,27.9,26.5,11111222
Chevron,ioos:station:wmo:42402:2,2022-06-24T15:55:00Z,26.9329,-90.5201,27.9,26.5,11111222
Chevron,ioos:station:wmo:42402:2,2022-06-24T16:15:00Z,26.9329,-90.5201,27.9,26.4,11111222
Chevron,ioos:station:wmo:42402:2,2022-06-24T16:35:00Z,26.9329,-90.5201,27.9,26.4,11111222
Chevron,ioos:station:wmo:42402:2,2022-06-24T16:54:00Z,26.9329,-90.5201,27.9,26.3,11111222
Chevron,ioos:station:wmo:42402:2,2022-06-24T17:14:00Z,26.9329,-90.5201,27.9,26.4,11111222
Chevron,ioos:station:wmo:42402:2,2022-06-24T17:34:00Z,26.9329,-90.5201,27.9,26.4,11111222
Chevron,ioos:station:wmo:42402:2,2022-06-24T17:54:00Z,26.9329,-90.5201,27.9,26.5,11111222
Chevron,ioos:station:wmo:42402:2,2022-06-24T18:14:00Z,26.9329,-90.5201,27.9,26.5,11111222
Chevron,ioos:station:wmo:42402:2,2022-06-24T18:34:00Z,26.9329,-90.5201,27.9,26.5,11111222
Chevron,ioos:station:wmo:42402:2,2022-06-24T18:54:00Z,26.9329,-90.5201,27.9,26.4,11111222
Chevron,ioos:station:wmo:42402:2,2022-06-24T19:14:00Z,26.9329,-90.5201,27.9,26.4,11111222
Chevron,ioos:station:wmo:42402:2,2022-06-24T19:34:00Z,26.9329,-90.5201,27.9,26.4,11111222
Chevron,ioos:station:wmo:42402:2,2022-06-24T19:54:00Z,26.9329,-90.5201,27.9,26.5,11111222
Chevron,ioos:station:wmo:42402:2,2022-06-24T20:14:00Z,26.9329,-90.5201,27.9,26.5,11111222
Chevron,ioos:station:wmo:42402:2,2022-06-24T20:34:00Z,26.9329,-90.5201,27.9,26.3,11111222
Chevron,ioos:station:wmo:42402:2,2022-06-24T20:54:00Z,26.9329,-90.5201,27.9,26.1,11111222
Chevron,ioos:station:wmo:42402:2,2022-06-24T21:13:00Z,26.9329,-90.5201,27.9,26.3,11111222
Chevron,ioos:station:wmo:42402:2,2022-06-24T21:33:00Z,26.9329,-90.5201,27.9,26.3,11111222
Chevron,ioos:station:wmo:42402:2,2022-06-24T21:52:00Z,26.9329,-90.5201,27.9,26.2,11111222
Chevron,ioos:station:wmo:42402:2,2022-06-24T22:12:00Z,26.9329,-90.5201,27.9,26.2,11111222
Chevron,ioos:station:wmo:42402:2,2022-06-24T22:32:00Z,26.9329,-90.5201,27.9,26.2,11111222
Chevron,ioos:station:wmo:42402:2,2022-06-24T22:52:00Z,26.9329,-90.5201,27.9,26.2,11111222
Chevron,ioos:station:wmo:42402:2,2022-06-24T23:12:00Z,26.9329,-90.5201,27.9,26.2,11111222
Chevron,ioos:station:wmo:42402:2,2022-06-24T23:32:00Z,26.9329,-90.5201,27.9,26.3,11111222
Chevron,ioos:station:wmo:42402:2,2022-06-24T23:52:00Z,26.9329,-90.5201,27.9,26.2,11111222
Chevron,ioos:station:wmo:42402:2,2022-06-25T00:12:00Z,26.9329,-90.5201,27.9,26.3,11111222
Chevron,ioos:station:wmo:42402:2,2022-06-25T00:32:00Z,26.9329,-90.5201,27.9,26.2,11111222
Chevron,ioos:station:wmo:42402:2,2022-06-25T00:52:00Z,26.9329,-90.5201,27.9,26.2,11111222
Chevron,ioos:station:wmo:42402:2,2022-06-25T01:12:00Z,26.9329,-90.5201,27.9,26.3,11111222
Chevron,ioos:station:wmo:42402:2,2022-06-25T01:32:00Z,26.9329,-90.5201,27.9,26.2,11111222
Chevron,ioos:station:wmo:42402:2,2022-06-25T01:52:00Z,26.9329,-90.5201,27.9,26.3,11111222
Chevron,ioos:station:wmo:42402:2,2022-06-25T02:12:00Z,26.9329,-90.5201,27.9,26.3,11111222
Chevron,ioos:station:wmo:42402:2,2022-06-25T02:32:00Z,26.9329,-90.5201,27.9,26.2,11111222
Chevron,ioos:station:wmo:42402:2,2022-06-25T02:52:00Z,26.9329,-90.5201,27.9,26.3,11111222
Chevron,ioos:station:wmo:42402:2,2022-06-25T03:12:00Z,26.9329,-90.5201,27.9,26.3,11111222
Chevron,ioos:station:wmo:42402:2,2022-06-25T03:32:00Z,26.9329,-90.5201,27.9,26.3,11111222
Chevron,ioos:station:wmo:42402:2,2022-06-25T03:52:00Z,26.9329,-90.5201,27.9,26.3,11111222
Chevron,ioos:station:wmo:42402:2,2022-06-25T04:12:00Z,26.9329,-90.5201,27.9,26.3,11111222
Chevron,ioos:station:wmo:42402:2,2022-06-25T04:32:00Z,26.9329,-90.5201,27.9,26.3,11111222
Chevron,ioos:station:wmo:42402:2,2022-06-25T04:52:00Z,26.9329,-90.5201,27.9,26.3,11111222
Chevron,ioos:station:wmo:42402:2,2022-06-25T05:12:00Z,26.9329,-90.5201,27.9,26.2,11111222
Chevron,ioos:station:wmo:42402:2,2022-06-25T05:32:00Z,26.9329,-90.5201,27.9,26.2,11111222
Chevron,ioos:station:wmo:42402:2,2022-06-25T05:52:00Z,26.9329,-90.5201,27.9,26.1,11111222
Chevron,ioos:station:wmo:42402:2,2022-06-25T06:12:00Z,26.9329,-90.5201,27.9,26.0,11111222
Chevron,ioos:station:wmo:42402:2,2022-06-25T06:32:00Z,26.9329,-90.5201,27.9,26.1,11111222
Chevron,ioos:station:wmo:42402:2,2022-06-25T06:52:00Z,26.9329,-90.5201,27.9,26.1,11111222
Chevron,ioos:station:wmo:42402:2,2022-06-25T07:12:00Z,26.9329,-90.5201,27.9,26.0,11111222
Chevron,ioos:station:wmo:42402:2,2022-06-25T07:32:00Z,26.9329,-90.5201,27.9,26.1,11111222
Chevron,ioos:station:wmo:42402:2,2022-06-25T07:52:00Z,26.9329,-90.5201,27.9,25.9,11111222
Chevron,ioos:station:wmo:42402:2,2022-06-25T08:12:00Z,26.9329,-90.5201,27.9,25.7,11111222
Chevron,ioos:station:wmo:42402:2,2022-06-25T08:32:00Z,26.9329,-90.5201,27.9,25.6,11111222
Chevron,ioos:station:wmo:42402:2,2022-06-25T08:52:00Z,26.9329,-90.5201,27.9,25.6,11111222
Chevron,ioos:station:wmo:42402:2,2022-06-25T09:12:00Z,26.9329,-90.5201,27.9,25.6,11111222
Chevron,ioos:station:wmo:42402:2,2022-06-25T09:33:00Z,26.9329,-90.5201,27.9,25.7,11111222
Chevron,ioos:station:wmo:42402:2,2022-06-25T09:52:00Z,26.9329,-90.5201,27.9,25.7,11111222
Chevron,ioos:station:wmo:42402:2,2022-06-25T10:12:00Z,26.9329,-90.5201,27.9,25.7,11111222
Chevron,ioos:station:wmo:42402:2,2022-06-25T10:32:00Z,26.9329,-90.5201,27.9,25.8,11111222
Chevron,ioos:station:wmo:42402:2,2022-06-25T10:52:00Z,26.9329,-90.5201,27.9,25.8,11111222
Chevron,ioos:station:wmo:42402:2,2022-06-25T11:12:00Z,26.9329,-90.5201,27.9,26.1,11111222
Chevron,ioos:station:wmo:42402:2,2022-06-25T11:32:00Z,26.9329,-90.5201,27.9,26.2,11111222
Chevron,ioos:station:wmo:42402:2,2022-06-25T11:52:00Z,26.9329,-90.5201,27.9,26.4,11111222
Chevron,ioos:station:wmo:42402:2,2022-06-25T12:12:00Z,26.9329,-90.5201,27.9,26.4,11111222
Chevron,ioos:station:wmo:42402:2,2022-06-25T12:32:00Z,26.9329,-90.5201,27.9,26.4,11111222